Regional Weather Roundup
Issued by NWS

Home | Current Version | Previous Version | Text Only | Print | Product List | Glossary On
Versions: 1 2 3 4 5 6 7 8 9 10 11 12 13 14 15 16 17 18 19 20 21 22 23 24 25 26 27 28 29 30 31 32 33 34 35 36 37 38 39 40 41 42 43 44 45 46 47 48 49 50
000
ASUS43 KDTX 301910
RWRMI
MICHIGAN HOURLY REGIONAL WEATHER ROUNDUP
NATIONAL WEATHER SERVICE DETROIT/PONTIAC MI
300 PM EDT THU MAR 30 2017

NOTE: "FAIR" INDICATES FEW OR NO CLOUDS BELOW 12,000 FEET WITH NO
SIGNIFICANT WEATHER AND/OR OBSTRUCTION TO VISIBILITY.

MIZ047>049-052>055-059>063-066>070-074>076-081>083-302000-
SOUTHEAST LOWER MICHIGAN

CITY           SKY/WX    TMP DP  RH WIND       PRES   REMARKS
ADRIAN         LGT RAIN  39  37  92 E16       29.82F FOG     WCI  30
ALMA           CLOUDY    36  36  99 NE16G22   29.87F FOG     WCI  26
ANN ARBOR      CLOUDY    40  38  93 NE13G22   29.81F WCI  32
BAD AXE        LGT SNOW  34  32  92 E10G17    29.98S WCI  26
CARO           LGT RAIN  35  34  96 E13G22    29.92F WCI  26
DETROIT CITY   CLOUDY    38  38 100 E12G22    29.86F WCI  30
DETROIT        CLOUDY    41  37  86 E16G24    29.84F
FLINT          LGT RAIN  37  35  92 NE12      29.88F WCI  29
GROSSE ILE     CLOUDY    41  37  88 E14G24    29.82F
HILLSDALE      RAIN      37  36  93 E17       29.76S WCI  28
HOWELL         CLOUDY    38  36  91 E13G20    29.83F WCI  30

CITY           SKY/WX    TMP DP  RH WIND       PRES   REMARKS
JACKSON        LGT RAIN  40  37  89 E14G24    29.79S WCI  32
LAMBERTVILLE   CLOUDY    40  37  87 E16G23    29.79F WCI  32
LANSING        LGT RAIN  38  35  89 E12       29.83F WCI  30
LAPEER         LGT RAIN  36  35  98 E7        29.88F WCI  30
MASON          CLOUDY    39  38  95 E12       29.82R WCI  32
MONROE         CLOUDY    39  38  94 E16G31    29.82F WCI  30
MT. CLEMENS    LGT RAIN  38  38 100 E14       29.84F FOG     WCI  29
PONTIAC        CLOUDY    37  34  89 E13G23    29.82F WCI  29
PORT HOPE        N/A     36  31  82 E12       29.97F WCI  28
PORT HURON     LGT RAIN  36  34  93 E22G28    29.89F WCI  24
TRI CITIES     LGT RAIN  37  36  96 NE15      29.92F FOG     WCI  28
MIDLAND        MIX PCPN  35  33  94 NE12G20   29.93F WCI  26
TROY           CLOUDY    38  36  91 E10G24    29.87S WCI  31
SAGINAW HB     DRIZZLE   37  34  87 NE17G24   29.91F WCI  28
$$
MIZ043>046-050>051-056>058-064>065-071>073-077>080-302000-
SOUTHWEST LOWER MICHIGAN

CITY           SKY/WX    TMP DP  RH WIND       PRES   REMARKS
BATTLE CREEK   CLOUDY    42  40  92 E10G20    29.76F
BIG RAPIDS     CLOUDY    36  33  92 E12G17    29.86F WCI  27
COLDWATER      MIX PCPN  42  40  93 E13G24    29.76S
FREMONT        CLOUDY    38  36  92 E20       29.81F WCI  28
HOLLAND        RAIN      41  38  89 E17G26    29.75F FOG
GRAND RAPIDS   RAIN      39  38  96 E17G23    29.81F FOG     WCI  30
IONIA          LGT RAIN  37  36  96 E14G23    29.83F WCI  28
KALAMAZOO      LGT RAIN  43  38  82 E8        29.76F
LUDINGTON      LGT RAIN  39  37  93 E14G24    29.84F WCI  31
MARSHALL       CLOUDY    41  40  97 E10G20    29.76F
MOUNT PLEASANT RAIN      34  33  95 NE15      29.90F WCI  24
MUSKEGON       RAIN      41  38  89 E20G28    29.79F FOG
SOUTH HAVEN    CLOUDY    44  42  94 E16G25    29.69F
$$
MIZ016>042-302000-
NORTHERN LOWER MICHIGAN

CITY           SKY/WX    TMP DP  RH WIND       PRES   REMARKS
ALPENA         CLOUDY    39  28  64 E14       30.05F WCI  31
BEAVER ISLAND  CLOUDY    36  32  85 E15G24    30.00F WCI  27
BELLAIRE       CLOUDY    42  28  57 E9G18     29.97F
CADILLAC       LGT RAIN  37  33  87 E16       29.89F WCI  27
CHARLEVOIX     CLOUDY    41  28  60 E16G26    30.00F
FRANKFORT      LGT RAIN  40  32  72 E9G16     29.90F WCI  34
GAYLORD        FLURRIES  38  26  62 E14G20    29.96F WCI  30
GRAYLING       CLOUDY    39  28  65 E21       29.96F WCI  29
HARBOR SPRINGS CLOUDY    39  29  67 E15G24    29.99F WCI  31
HOUGHTON LAKE  CLOUDY    39  28  64 E17G25    29.94F WCI  30
MANISTEE       LGT RAIN  40  37  89 E15G25    29.87F WCI  32
OSCODA         CLOUDY    39  28  66 NE17      30.02F WCI  29
PELLSTON       CLOUDY    39  27  62 E14G25    30.02F WCI  31
ROGERS CITY    CLOUDY    37  30  76 E17G25    30.07F WCI  27
TRAVERSE CITY  LGT RAIN  42  29  59 E15G26    29.93F
$$
MIZ007>008-015-302000-
EASTERN UPPER MICHIGAN

CITY           SKY/WX    TMP DP  RH WIND       PRES   REMARKS
KINROSS        CLOUDY    39  25  57 E17       30.05F WCI  30
MACKINAC ISLAN CLOUDY    34  28  80 E9G25     30.04F WCI  26
NEWBERRY       PTSUNNY   40  27  59 E10G17    30.02F WCI  34
S. S. MARIE    PTSUNNY   41  23  48 SE12G24   30.06F
MUNISING         N/A     44  32  62 S9G22     30.01F
$$
MIZ004>006-011>014-085-302000-
CENTRAL UPPER MICHIGAN

CITY           SKY/WX    TMP DP  RH WIND       PRES   REMARKS
MANISTIQUE     CLOUDY    36  35  97 E12       30.01F WCI  28
ESCANABA       CLOUDY    36  34  92 E12       30.00S WCI  28
MENOMINEE      MIX PCPN  34  32  92 E14       29.95F WCI  25
SAWYER-GWINN   CLOUDY    37  32  81 SE6       29.99F WCI  33
$$
MIZ001>003-009>011-084-302000-
WESTERN UPPER MICHIGAN

CITY           SKY/WX    TMP DP  RH WIND       PRES   REMARKS
IRON MOUNTAIN  FLURRIES  36  30  79 E9        29.95F WCI  29
HOUGHTON       CLOUDY    36  26  67 E18G25    29.98F WCI  26
COPPER HARBOR    N/A     39  27  62 S9G20     30.01F WCI  33
IRONWOOD       CLOUDY    48  25  40 NE12G17   29.90F
$$

ABBREVIATIONS USED IN REMARKS
   TC - TEMPERATURE IN CELSIUS
  WCI - WIND CHILL INDEX
   HX - HEAT INDEX
  VSB - VISIBILITY




USA.gov is the U.S. government's official web portal to all federal, state and local government web resources and services.